Preview of NWS' New Version of Forecast
This preview is not operational and should not be used for support decisions.
Latest weather observations around

Portland, Portland International Airport (KPDX)

Using English Units (Switch to International System of Units)
Date/ Time (PDT) Wind (mph) Vis. (mi) Weather Sky Cond. Temp (°F) Rel. Humidity Wind Chill (°F) Heat Index (°F) Pressure Precip. (in)
Air Dwpt 6 hour Altimeter (inHg) Sea level (inHg) 1 hr 3 hr 6 hr
Max Min
Jun 26 22:53 ESE 11 10 Cloudy FEW020 BKN050 OVC070 57 52     83%     29.98 29.97     0
Jun 26 21:53 ESE 10 10 Cloudy BKN085 BKN130 OVC170 57 51     81%     29.97 29.97      
Jun 26 20:53 E 11 10 Mostly Cloudy SCT060 BKN100 BKN140 56 52     87%     29.96 29.96 0    
Jun 26 20:08 SE 15 10 Light Rain FEW050 OVC075 57 51     81%     29.94   0    
Jun 26 19:53 SSE 10 10 Thunderstorms and Rain SCT048 OVC070 58 52     81%     29.94 29.93 0 0  
Jun 26 19:23 SSW 17 5 Thunderstorms and Rain BKN031 BKN042 OVC050 61 51     70%     29.93   0    
Jun 26 19:08 S 17 9 Thunderstorms and Heavy Rain BKN029 OVC060 60 52     75%     29.91   0    
Jun 26 18:53 SSE 8 10 Thunderstorms and Rain FEW050 BKN060 OVC100 66 53     63%     29.89 29.89 0    
Jun 26 18:38 WNW 13 10 Thunderstorms BKN060 BKN075 BKN100 BKN250 68 52     57%     29.86        
Jun 26 18:26 NW 13 10 Cloudy BKN060 BKN075 BKN100 OVC250 69 52     54%     29.84        
Jun 26 17:53 WNW 20 10 Mostly Cloudy and Windy BKN065 BKN100 BKN250 73 48     41%   72 29.83 29.83      
Jun 26 16:53 6 10 Mostly Cloudy SCT065 BKN080 BKN100 BKN240 76 45     33%   75 29.82 29.81      
Jun 26 15:53 3 10 Mostly Cloudy SCT065 BKN090 BKN110 74 45     36%   73 29.83 29.83      
Jun 26 14:53 NW 8 10 Partly Cloudy SCT055 SCT150 72 47     41%   71 29.82 29.82      
Jun 26 13:53 NW 8 10 Mostly Clear FEW030 FEW150 73 48     41%   72 29.83 29.83      
Jun 26 12:53 NW 8 10 Mostly Clear FEW025 FEW150 71 48     44%   70 29.84 29.84      
Jun 26 11:53 NW 8 10 Mostly Clear FEW025 FEW150 68 50     53%     29.86 29.85      
Jun 26 10:53 7 10 Partly Cloudy FEW020 FEW100 SCT150 65 49     56%     29.87 29.86      
Jun 26 09:53 NW 7 10 Mostly Cloudy FEW019 SCT100 BKN150 63 51     65%     29.87 29.87      
Jun 26 08:53 NW 5 10 Mostly Cloudy FEW013 SCT034 BKN100 60 50     69%     29.89 29.88      
Jun 26 07:53 Calm 10 Mostly Cloudy FEW012 BKN055 BKN100 58 50     75%     29.9 29.89      
Jun 26 06:53 3 10 Mostly Cloudy BKN055 BKN120 58 50     75%     29.91 29.9      
Jun 26 05:53 WNW 5 10 Mostly Cloudy SCT050 SCT060 BKN130 57 49     74%     29.91 29.9      
Jun 26 04:53 WNW 5 10 Mostly Cloudy SCT030 BKN050 59 49     69%     29.91 29.9      
Jun 26 04:15 NW 3 10 Mostly Cloudy BKN030 BKN050 59 49     69%     29.91        
Jun 26 03:53 Calm 10 Mostly Cloudy BKN029 59 49     69%     29.91 29.91      
Jun 26 02:53 NE 3 10 Cloudy OVC028 60 48     64%     29.91 29.91      
Jun 26 02:01 NW 3 10 Mostly Cloudy BKN028 BKN055 60 49     67%     29.92        
Jun 26 01:53 NNW 3 10 Mostly Cloudy SCT029 BKN055 60 48     64%     29.92 29.91      
Jun 26 00:53 3 10 Mostly Cloudy BKN050 BKN060 60 48     64%     29.92 29.92      
Jun 25 23:53 NNW 3 10 Mostly Cloudy BKN043 BKN055 61 50     67%     29.92 29.91      
Jun 25 22:53 NNW 6 10 Mostly Cloudy BKN047 62 51     67%     29.91 29.91      
Jun 25 21:53 NNW 7 10 Mostly Cloudy SCT049 BKN085 64 52     65%     29.9 29.89      
Jun 25 20:53 NNW 7 10 Mostly Cloudy BKN049 BKN060 65 53     65%     29.87 29.87      
Jun 25 19:53 NW 8 10 Mostly Clear FEW060 FEW190 67 53     61%     29.86 29.85      
Jun 25 18:53 NNW 11 10 Mostly Clear FEW060 FEW180 69 53     57%     29.84 29.84      
Jun 25 18:01 NW 21 10 Mostly Cloudy and Windy SCT055 BKN075 72 52     49%   71 29.83        
Jun 25 17:53 WNW 14 10 Mostly Cloudy SCT070 BKN085 74 48     40%   73 29.82 29.82      
Jun 25 17:46 NW 7 10 Mostly Cloudy SCT070 BKN085 74 47     38%   73 29.82        
Jun 25 16:53 WNW 6 10 Mostly Cloudy SCT060 BKN085 BKN240 73 47     39%   72 29.83 29.83      
Jun 25 15:53 NW 8 10 Partly Cloudy FEW040 SCT085 SCT230 73 49     43%   72 29.84 29.84      
Jun 25 14:53 NNW 6 10 Partly Cloudy FEW035 SCT075 SCT090 SCT230 72 50     46%   71 29.86 29.86      
Jun 25 13:53 NW 9 10 Partly Cloudy FEW025 FEW065 SCT085 SCT230 69 50     51%     29.87 29.87      
Jun 25 12:53 WNW 14 10 Mostly Cloudy FEW022 FEW060 BKN080 66 49     54%     29.88 29.88      
Jun 25 11:53 WNW 6 10 Mostly Cloudy FEW045 BKN065 BKN080 BKN250 66 49     54%     29.89 29.89      
Jun 25 10:53 5 10 Mostly Cloudy FEW050 BKN070 BKN250 65 50     58%     29.9 29.89     0
Jun 25 09:53 NW 5 10 Mostly Cloudy FEW050 BKN080 BKN250 61 51     70%     29.9 29.9      
Jun 25 08:53 W 5 10 Mostly Cloudy FEW050 BKN080 BKN110 BKN250 59 50     72%     29.9 29.89 0    
Jun 25 07:53 Calm 10 Light Rain FEW050 BKN080 BKN095 BKN200 57 49     74%     29.9 29.89 0 0  
Jun 25 06:53 Calm 10 Mostly Cloudy FEW060 SCT080 BKN200 57 48     72%     29.9 29.9      
Jun 25 05:53 W 3 10 Mostly Cloudy FEW080 BKN220 56 48     75%     29.89 29.89      
Jun 25 04:53 WNW 7 10 Cloudy BKN120 OVC190 57 47     69%     29.89 29.88      
Jun 25 03:53 NW 5 10 Mostly Clear FEW140 FEW190 57 48     72%     29.89 29.88      
Jun 25 02:53 WNW 5 10 Clear CLR 58 48     70%     29.89 29.89      
Jun 25 01:53 WNW 3 10 Clear CLR 59 49     69%     29.89 29.89      
Jun 25 00:53 W 5 10 Clear CLR 58 48     70%     29.9 29.89      
Jun 24 23:53 Calm 10 Mostly Clear FEW250 61 48     62%     29.91 29.9      
Jun 24 22:53 Calm 10 Mostly Clear FEW180 FEW250 62 46     56%     29.91 29.91      
Jun 24 21:53 Calm 10 Mostly Clear FEW180 FEW250 64 46     52%     29.92 29.91      
Jun 24 20:53 WNW 6 10 Mostly Clear FEW190 FEW250 67 45     45%     29.91 29.91      
Jun 24 19:53 N 6 10 Mostly Cloudy FEW050 FEW190 BKN250 69 44     40%     29.92 29.92      
Jun 24 18:53 WNW 8 10 Mostly Cloudy FEW050 FEW190 BKN250 70 45     41%     29.93 29.93      
Jun 24 17:53 NW 5 10 Clear   71 45     39%   70 29.95 29.94      
Jun 24 16:53 NNW 8 10 Mostly Cloudy FEW050 BKN250 71 45     39%   70 29.97 29.97      
Jun 24 15:53 6 10 Partly Cloudy FEW050 SCT250 69 43     39%     29.99 29.99      
Jun 24 14:53 WNW 11 10 Partly Cloudy FEW050 SCT250 68 44     42%     30.01 30.01      
Jun 24 13:53 W 9 10 Partly Cloudy FEW042 SCT250 66 43     43%     30.03 30.03      
Jun 24 12:53 NW 8 10 Partly Cloudy SCT042 66 43     43%     30.05 30.05      
Jun 24 11:53 NNW 5 10 Mostly Cloudy FEW038 BKN045 63 43     48%     30.07 30.06      
Jun 24 10:53 5 10 Mostly Cloudy FEW035 BKN044 62 44     52%     30.08 30.08      
Jun 24 09:53 Calm 10 Mostly Cloudy SCT035 BKN046 60 44     55%     30.09 30.09      
Jun 24 08:53 Calm 10 Mostly Clear FEW025 FEW048 59 46     62%     30.1 30.09      
Jun 24 07:53 Calm 10 Mostly Clear FEW022 FEW040 57 46     67%     30.1 30.1      
Jun 24 06:53 Calm 10 Mostly Clear FEW020 FEW045 54 47     77%     30.11 30.1      
Jun 24 05:53 NNW 3 10 Mostly Clear FEW045 FEW090 53 46     77%     30.1 30.1      
Jun 24 04:53 NW 5 10 Mostly Clear FEW045 52 46     80%     30.11 30.11      
Jun 24 03:53 NW 5 10 Mostly Cloudy BKN043 54 47     77%     30.13 30.12      
Jun 24 02:53 NW 9 10 Mostly Cloudy BKN044 55 46     72%     30.13 30.12      
Jun 24 01:53 NW 6 10 Mostly Cloudy SCT039 BKN046 56 46     69%     30.13 30.13      
Jun 24 00:53 NW 8 10 Partly Cloudy SCT045 55 46     72%     30.13 30.13      
Jun 23 23:53 NW 9 10 Partly Cloudy SCT045 56 45     67%     30.14 30.13      
Jun 23 22:53 NNW 9 10 Partly Cloudy SCT043 58 45     62%     30.15 30.14      
May 15 08:53 S 5 8 Cloudy FEW008 OVC013 57 51     81%     29.98 29.98      
Notice The following observation data may not be complete
May 14 04:53   10 Clear CLR          %              
May 13 12:53 NW 6 10 Mostly Clear FEW030 79 50     36%   78 29.9 29.9      
May 12 18:53 NW 11 10 Clear CLR 77 49     37%   76 29.9 29.9      
Jun 12 01:53 W 6 10 Partly Cloudy SCT041 53 47     80%     30.03 30.02      
Jun 10 14:53 SSW 10 10 Mostly Cloudy SCT032 BKN044 BKN160 60 45     57%     29.87 29.86      
Jun 10 00:53 SE 3 10 Light Rain SCT047 BKN055 OVC075 52 48     86%     29.9 29.89 0    
Jun 09 23:53 SE 5 10 Mostly Cloudy BKN055 BKN100 51 48     89%     29.9 29.89      
Jun 09 14:53   10 Cloudy BKN040 BKN055 BKN070 OVC260 62 45     53%     29.86 29.86      
Jun 08 20:53 W 9 10 Light Rain SCT043 BKN060 BKN075 58 43     57%     29.97 29.97 0    
Jun 08 13:53 W 15 10 Mostly Cloudy FEW025 BKN044 BKN100 65 48     54%     29.86 29.86   0  
Notice The following observation data may not be complete
Jun 08 07:20   10 Light Rain SCT015 BKN020 OVC031          %         0    
Jun 05 20:53 NNW 8 10 Mostly Cloudy SCT210 BKN250 71 46     41%   70 29.97 29.96      
Jun 05 16:53 WNW 9 10 Mostly Cloudy FEW210 BKN260 76 29     18%   74 29.99 29.99